Location: Elmsmere
(40.9284°N, 73.8207°W)
Time: 20:52:06
(UTC+00:00)

STARLINK-2743 - Pass Details

Date: 25 June 2021
Orbit: 348 x 351 km, 53.0° (Epoch: 31 July)

Event Time Altitude Azimuth Distance (km) Brightness Sun altitude
Exits shadow 06:59:31 22° 114° (ESE) 884 4.7 -19.8°
Drops below altitude 10° 07:01:28 10° 77° (ENE) 1,386 6.2 -19.6°
Enters shadow 07:55:18 -73° 233° (SW) 12,559 10.5 -13.7°
Maximum altitude 08:34:18 33° 329° (NNW) 656 4.1 -8.5°
